| time (UTC) | temp F | wind direction | speed MPH | gust MPH | rain 1hr in | rain 24hr in | rain mn in | humidity % | barometer mb |
| 20260508191503 | 65 | 314 | 3.0 | 9.0 | 0.00 | 0.05 | 0.00 | 34 | 1007.2 |
| 20260508190004 | 64 | 352 | 2.0 | 10.0 | 0.00 | 0.05 | 0.00 | 35 | 1007.6 |
| 20260508184600 | 64 | 85 | 1.0 | 5.0 | 0.00 | 0.05 | 0.00 | 35 | 1007.8 |
| 20260508183104 | 65 | 289 | 2.0 | 10.0 | 0.00 | 0.05 | 0.00 | 37 | 1008.0 |
| 20260508181612 | 64 | 339 | 2.0 | 6.0 | 0.00 | 0.05 | 0.00 | 34 | 1008.2 |
| 20260508180108 | 62 | 181 | 2.0 | 8.0 | 0.00 | 0.05 | 0.00 | 36 | 1008.3 |
| 20260508174549 | 62 | 127 | 1.0 | 5.0 | 0.00 | 0.05 | 0.00 | 34 | 1008.7 |
| 20260508173050 | 62 | 258 | 5.0 | 11.0 | 0.00 | 0.05 | 0.00 | 36 | 1009.0 |
| 20260508171544 | 61 | 355 | 2.0 | 11.0 | 0.00 | 0.05 | 0.00 | 32 | 1009.1 |
| 20260508170041 | 61 | 240 | 6.0 | 12.0 | 0.00 | 0.05 | 0.00 | 37 | 1009.3 |
| 20260508164542 | 60 | 293 | 7.0 | 13.0 | 0.00 | 0.05 | 0.00 | 37 | 1009.7 |
| 20260508163038 | 61 | 277 | 4.0 | 7.0 | 0.00 | 0.05 | 0.00 | 39 | 1010.0 |
| 20260508161509 | 62 | 207 | 1.0 | 9.0 | 0.00 | 0.05 | 0.00 | 40 | 1010.0 |
| 20260508160006 | 60 | 212 | 0.0 | 8.0 | 0.00 | 0.05 | 0.00 | 41 | 1010.2 |
| 20260508154600 | 60 | 206 | 1.0 | 4.0 | 0.00 | 0.05 | 0.00 | 37 | 1010.3 |
| 20260508153100 | 59 | 262 | 3.0 | 8.0 | 0.00 | 0.05 | 0.00 | 37 | 1010.5 |
| 20260508151554 | 59 | 268 | 2.0 | 5.0 | 0.00 | 0.05 | 0.00 | 44 | 1010.5 |
| 20260508150049 | 57 | 297 | 2.0 | 7.0 | 0.00 | 0.05 | 0.00 | 46 | 1010.4 |
| 20260508144544 | 56 | 299 | 3.0 | 5.0 | 0.00 | 0.05 | 0.00 | 59 | 1010.7 |
| 20260508143039 | 54 | 324 | 3.0 | 6.0 | 0.00 | 0.05 | 0.00 | 67 | 1010.7 |
| 20260508141546 | 53 | 323 | 2.0 | 5.0 | 0.00 | 0.05 | 0.00 | 78 | 1010.6 |
| 20260508140030 | 51 | 262 | 0.0 | 3.0 | 0.00 | 0.05 | 0.00 | 87 | 1010.7 |
| 20260508134523 | 49 | 232 | 3.0 | 5.0 | 0.00 | 0.05 | 0.00 | 89 | 1010.7 |
| 20260508133021 | 48 | 271 | 2.0 | 5.0 | 0.00 | 0.05 | 0.00 | 88 | 1010.8 |
| 20260508131515 | 47 | 198 | 0.0 | 3.0 | 0.00 | 0.05 | 0.00 | 87 | 1011.0 |
| 20260508130012 | 45 | 198 | 0.0 | 4.0 | 0.00 | 0.05 | 0.00 | 87 | 1010.9 |
| 20260508124607 | 44 | 214 | 1.0 | 4.0 | 0.00 | 0.05 | 0.00 | 87 | 1011.0 |
| 20260508123034 | 42 | 219 | 1.0 | 4.0 | 0.00 | 0.05 | 0.00 | 87 | 1011.0 |
| 20260508121530 | 39 | 258 | 0.0 | 0.0 | 0.00 | 0.05 | 0.00 | 88 | 1011.0 |
| 20260508120035 | 37 | 258 | 0.0 | 0.0 | 0.00 | 0.05 | 0.05 | 88 | 1011.1 |
| 20260508114523 | 36 | 258 | 0.0 | 0.0 | 0.00 | 0.05 | 0.05 | 89 | 1010.9 |
| 20260508113023 | 36 | 260 | 0.0 | 0.0 | 0.00 | 0.05 | 0.05 | 89 | 1010.8 |
| 20260508111523 | 36 | 263 | 0.0 | 2.0 | 0.00 | 0.05 | 0.05 | 89 | 1010.8 |
| 20260508110020 | 36 | 262 | 0.0 | 0.0 | 0.01 | 0.05 | 0.05 | 89 | 1010.8 |
| 20260508104519 | 35 | 260 | 0.0 | 0.0 | 0.01 | 0.05 | 0.05 | 89 | 1010.8 |
| 20260508103028 | 35 | 260 | 0.0 | 1.0 | 0.01 | 0.05 | 0.05 | 89 | 1010.6 |
| 20260508101528 | 36 | 261 | 0.0 | 0.0 | 0.01 | 0.05 | 0.05 | 90 | 1010.8 |
| 20260508100047 | 36 | 260 | 1.0 | 4.0 | 0.00 | 0.04 | 0.04 | 90 | 1010.8 |
| 20260508094602 | 36 | 210 | 0.0 | 0.0 | 0.00 | 0.04 | 0.04 | 90 | 1010.7 |
| 20260508093041 | 36 | 209 | 0.0 | 0.0 | 0.00 | 0.04 | 0.04 | 89 | 1010.8 |
| 20260508091539 | 37 | 208 | 0.0 | 0.0 | 0.00 | 0.04 | 0.04 | 89 | 1011.0 |
| 20260508090039 | 37 | 209 | 0.0 | 0.0 | 0.00 | 0.04 | 0.04 | 89 | 1011.0 |
| 20260508084537 | 37 | 208 | 0.0 | 0.0 | 0.00 | 0.04 | 0.04 | 89 | 1011.0 |
| 20260508083036 | 37 | 208 | 0.0 | 0.0 | 0.00 | 0.04 | 0.04 | 89 | 1011.1 |
| 20260508081533 | 38 | 207 | 0.0 | 0.0 | 0.00 | 0.04 | 0.04 | 89 | 1011.2 |
| 20260508080036 | 38 | 208 | 0.0 | 0.0 | 0.00 | 0.04 | 0.04 | 89 | 1011.3 |
| 20260508074532 | 39 | 209 | 0.0 | 2.0 | 0.00 | 0.04 | 0.04 | 89 | 1011.3 |
| 20260508073002 | 39 | 207 | 0.0 | 0.0 | 0.00 | 0.04 | 0.04 | 89 | 1011.5 |
| 20260508071503 | 39 | 207 | 0.0 | 0.0 | 0.00 | 0.04 | 0.04 | 89 | 1011.6 |
| 20260508070059 | 39 | 207 | 0.0 | 1.0 | 0.00 | 0.04 | 0.04 | 89 | 1011.6 |
| 20260508064606 | 39 | 207 | 0.0 | 0.0 | 0.00 | 0.04 | 0.04 | 89 | 1011.8 |
| 20260508063058 | 40 | 208 | 0.0 | 0.0 | 0.00 | 0.04 | 0.04 | 89 | 1011.8 |
| 20260508061559 | 40 | 208 | 0.0 | 0.0 | 0.00 | 0.04 | 0.04 | 88 | 1011.8 |
| 20260508060054 | 40 | 207 | 0.0 | 3.0 | 0.00 | 0.04 | 0.04 | 88 | 1011.9 |
| 20260508054602 | 40 | 192 | 0.0 | 0.0 | 0.00 | 0.04 | 0.04 | 88 | 1011.8 |
| 20260508053054 | 40 | 192 | 0.0 | 0.0 | 0.00 | 0.04 | 0.04 | 88 | 1011.5 |
| 20260508051554 | 41 | 192 | 0.0 | 1.0 | 0.00 | 0.04 | 0.04 | 87 | 1011.4 |
| 20260508050049 | 42 | 192 | 0.0 | 2.0 | 0.00 | 0.04 | 0.04 | 87 | 1011.3 |
| 20260508044549 | 42 | 192 | 0.0 | 1.0 | 0.00 | 0.04 | 0.04 | 86 | 1011.1 |
| 20260508043051 | 43 | 192 | 0.0 | 2.0 | 0.00 | 0.04 | 0.04 | 86 | 1011.1 |
| 20260508041547 | 43 | 192 | 0.0 | 2.0 | 0.00 | 0.04 | 0.04 | 85 | 1011.0 |
| 20260508040046 | 44 | 192 | 0.0 | 2.0 | 0.00 | 0.04 | 0.04 | 85 | 1011.0 |
| 20260508034551 | 44 | 192 | 0.0 | 2.0 | 0.00 | 0.04 | 0.04 | 84 | 1010.9 |
| 20260508033044 | 44 | 193 | 0.0 | 2.0 | 0.00 | 0.04 | 0.04 | 83 | 1010.8 |
| 20260508031543 | 45 | 196 | 0.0 | 2.0 | 0.00 | 0.04 | 0.04 | 82 | 1010.8 |
| 20260508030040 | 46 | 192 | 0.0 | 1.0 | 0.00 | 0.04 | 0.04 | 82 | 1010.6 |
| 20260508024545 | 46 | 191 | 0.0 | 3.0 | 0.00 | 0.04 | 0.04 | 81 | 1010.6 |
| 20260508023036 | 47 | 167 | 0.0 | 1.0 | 0.00 | 0.04 | 0.04 | 80 | 1010.5 |
| 20260508021541 | 47 | 167 | 1.0 | 3.0 | 0.00 | 0.04 | 0.04 | 79 | 1010.2 |
| 20260508020034 | 48 | 173 | 1.0 | 5.0 | 0.00 | 0.04 | 0.04 | 78 | 1010.0 |
| 20260508014547 | 49 | 118 | 2.0 | 4.0 | 0.00 | 0.04 | 0.04 | 76 | 1009.9 |
| 20260508013040 | 50 | 250 | 0.0 | 3.0 | 0.00 | 0.04 | 0.04 | 74 | 1009.4 |
| 20260508011540 | 50 | 248 | 1.0 | 4.0 | 0.00 | 0.04 | 0.04 | 74 | 1009.3 |
| 20260508010032 | 51 | 221 | 0.0 | 4.0 | 0.00 | 0.04 | 0.04 | 72 | 1009.2 |
| 20260508004531 | 51 | 253 | 1.0 | 9.0 | 0.00 | 0.04 | 0.04 | 72 | 1009.1 |
| 20260508003051 | 51 | 256 | 4.0 | 8.0 | 0.00 | 0.04 | 0.04 | 71 | 1009.1 |
| 20260508001530 | 52 | 234 | 3.0 | 7.0 | 0.00 | 0.04 | 0.04 | 69 | 1009.2 |
| 20260508000026 | 52 | 250 | 3.0 | 6.0 | 0.00 | 0.04 | 0.04 | 67 | 1009.1 |
| 20260507234526 | 53 | 167 | 2.0 | 11.0 | 0.00 | 0.04 | 0.04 | 65 | 1009.1 |
| 20260507233032 | 53 | 196 | 3.0 | 14.0 | 0.00 | 0.04 | 0.04 | 61 | 1009.1 |
| 20260507231526 | 54 | 175 | 5.0 | 12.0 | 0.00 | 0.04 | 0.04 | 59 | 1009.3 |
| 20260507230124 | 55 | 174 | 2.0 | 12.0 | 0.00 | 0.04 | 0.04 | 58 | 1009.5 |
| 20260507224613 | 58 | 155 | 4.0 | 13.0 | 0.00 | 0.04 | 0.04 | 51 | 1009.2 |
| 20260507223056 | 58 | 33 | 9.0 | 19.0 | 0.00 | 0.04 | 0.04 | 49 | 1009.0 |
| 20260507221547 | 57 | 9 | 10.0 | 18.0 | 0.00 | 0.04 | 0.04 | 52 | 1009.1 |
| 20260507220045 | 57 | 5 | 9.0 | 21.0 | 0.00 | 0.04 | 0.04 | 52 | 1009.3 |
| 20260507214547 | 56 | 49 | 8.0 | 18.0 | 0.00 | 0.04 | 0.04 | 57 | 1009.2 |
| 20260507213043 | 54 | 268 | 5.0 | 12.0 | 0.00 | 0.04 | 0.04 | 69 | 1009.6 |
| 20260507211550 | 54 | 271 | 2.0 | 9.0 | 0.02 | 0.04 | 0.04 | 68 | 1009.7 |
| 20260507210040 | 53 | 284 | 2.0 | 5.0 | 0.04 | 0.04 | 0.04 | 66 | 1009.9 |
| 20260507204537 | 52 | 178 | 2.0 | 7.0 | 0.04 | 0.04 | 0.04 | 68 | 1009.7 |
| 20260507203036 | 52 | 176 | 2.0 | 6.0 | 0.04 | 0.04 | 0.04 | 68 | 1009.8 |
| 20260507201531 | 51 | 152 | 2.0 | 15.0 | 0.02 | 0.02 | 0.02 | 71 | 1010.0 |
| 20260507200027 | 55 | 46 | 12.0 | 19.0 | 0.00 | 0.00 | 0.00 | 55 | 1010.1 |
| 20260507194528 | 55 | 4 | 3.0 | 7.0 | 0.00 | 0.00 | 0.00 | 55 | 1010.2 |
| 20260507193022 | 55 | 313 | 4.0 | 15.0 | 0.00 | 0.00 | 0.00 | 58 | 1010.5 |